This is the latest recevied weather packets stored in our database for station/object DC1MAK-13. If no packets are shown the sender has not sent any weather packets the latest 1 day(s).
| Time | Temp. | Humidity | Pressure | Rain* | Wind** | Luminosity | Snow |
|---|---|---|---|---|---|---|---|
| 1777989988 | 16.11° C | 80% | 978.5 hPa | - | 0 m/s | - | - |
| 1777989684 | 16.11° C | 79% | 978.4 hPa | - | 0 m/s | - | - |
| 1777989079 | 16.11° C | 78% | 978.3 hPa | - | 0 m/s | - | - |
| 1777988779 | 16.67° C | 77% | 978.2 hPa | - | 0 m/s | - | - |
| 1777988470 | 17.22° C | 77% | 978.2 hPa | - | 0 m/s | - | - |
| 1777988166 | 16.67° C | 76% | 978.4 hPa | - | 0 m/s | - | - |
| 1777987862 | 16.11° C | 77% | 978.6 hPa | - | 0 m/s | - | - |
| 1777987259 | 15.56° C | 79% | 978.8 hPa | - | 0 m/s | - | - |
| 1777986951 | 16.67° C | 77% | 978.9 hPa | - | 0 m/s | - | - |
| 1777986649 | 16.11° C | 75% | 978.9 hPa | - | 0 m/s | - | - |
| 1777986344 | 17.22° C | 75% | 978.9 hPa | - | 0 m/s | - | - |
| 1777985739 | 17.78° C | 73% | 978.8 hPa | - | 0 m/s | - | - |
| 1777985439 | 17.78° C | 68% | 978.8 hPa | - | 0 m/s | - | - |
| 1777985130 | 17.78° C | 69% | 978.8 hPa | - | 0 m/s | - | - |
| 1777984826 | 17.78° C | 66% | 978.8 hPa | - | 0 m/s | - | - |
| 1777984523 | 17.22° C | 66% | 978.8 hPa | - | 0 m/s | - | - |
| 1777983919 | 17.78° C | 62% | 978.7 hPa | - | 0 m/s | - | - |
| 1777983612 | 17.78° C | 61% | 978.7 hPa | - | 0 m/s | - | - |
| 1777983308 | 18.33° C | 59% | 978.7 hPa | - | 0 m/s | - | - |
| 1777983015 | 18.33° C | 58% | 978.7 hPa | - | 0 m/s | - | - |
| 1777982399 | 19.44° C | 55% | 978.6 hPa | - | 0 m/s | - | - |
| 1777982099 | 19.44° C | 55% | 978.6 hPa | - | 0 m/s | - | - |
| 1777981790 | 18.89° C | 55% | 978.5 hPa | - | 0 m/s | - | - |
| 1777981487 | 20° C | 53% | 978.4 hPa | - | 0 m/s | - | - |
| 1777981183 | 20° C | 52% | 978.4 hPa | - | 0 m/s | - | - |
* Rain since midnight (hover to see other rain measurements)
** Current wind speed in m/s (hover to see current wind gust speed)